Погода в Альметьеве

Россия / Республика Татарстан     55°15′10″N   52°42′51″E
темп.,
°C
ветер,
м/с
пор.,
м/с
влажн.,
%
обл.,
%
осадки,
мм/ч
давл.,
гПа
погр.,
м
15 мая, сб
сб1500:00+18ююз410582 0.0 1021176
03:00+17ююз495526 0.0 1021121
06:00+20ююз310535 0.0 1022258
09:00+25ююз68355 0.0 1021603
12:00+29юз68287 0.0 10211077
15:00+29ююз683047 0.0 10201390
18:00+24ююз410475 0.0 1020232
21:00+20ююз412475 0.0 1020170
16 мая, вс
вс1600:00+19ююз49495 0.0 1020121
03:00+18ююз34516 0.0 102053
06:00+21ю39535 0.0 1020216
09:00+27ююз68362 0.0 1020712
12:00+29юз68295 0.0 10192459
15:00+29юз67276 0.0 10193105
18:00+26ююз23455 0.0 101831
21:00+21ю454899 0.0 101859
17 мая, пн
пн1700:00+19ююз464819 0.0 101877
03:00+18юз355479 0.0 101960
06:00+21юз375699 0.0 1019170
09:00+26юз684194 0.0 1020620
12:00+29зюз673399 0.0 10191386
15:00+29з573122 0.0 10192461
18:00+23ююв5852100 0.0 1019172
21:00+20юз4850100 0.0 1019119
18 мая, вт
вт1800:00+19з366487 0.0 101996
03:00+18ююз22655 0.0 101911
06:00+21юз12556 0.0 1020125
09:00+27юв11386 0.0 1019573
12:00+29ююв23319 0.0 10183081
15:00+27ююв444183 0.0 1018592
18:00+22в235965 0.3 101852
21:00+19юв1165100 0.3 101811
19 мая, ср
ср1900:00+18ююв2270100 0.0 101828
03:00+17юв2269100 0.0 101912
06:00+20ююв2462100 0.0 1019135
09:00+26юв444680 0.0 1019606
12:00+28юв564056 0.0 10181461
15:00+29ююв453699 0.0 10182575
18:00+25юв475619 0.0 1018174
21:00+19юв477299 0.0 1018131